Regional Weather Roundup
Issued by NWS Charleston, SC

Current Version | Previous Version | Text Only | Print | Product List | Glossary Off
Versions: 1 2 3 4 5 6 7 8 9 10 11 12 13 14 15 16 17 18 19 20 21 22 23 24 25 26 27 28 29 30 31 32 33 34 35 36 37 38 39 40 41 42 43 44 45 46 47 48 49 50
000 ASUS42 KCHS 200812 RWRCHS REGIONAL WEATHER ROUNDUP NATIONAL WEATHER SERVICE CHARLESTON SC 400 AM EDT SUN AUG 20 2017 NOTE: "FAIR" INDICATES FEW OR NO CLOUDS BELOW 12,000 FEET WITH NO SIGNIFICANT WEATHER AND/OR OBSTRUCTIONS TO VISIBILITY. NOT ALL STATIONS ARE QUALITY CONTROLLED. USE DATA WITH CAUTION... ESPECIALLY DEWPOINT OBSERVATIONS. SCZ027-030-031-034>040-042>050-200900- ...SOUTHEAST SOUTH CAROLINA... CITY SKY/WX TMP DP RH WIND PRES REMARKS N CHARLESTON CLEAR 79 79 100 CALM 29.99S WATERFRONT PRK N/A 82 80 94 VRB2 29.83S HX 94 JOHNS ISLAND FAIR 81 79 94 CALM 29.99F PINOPOLIS N/A 81 79 94 VRB3 29.93S MONCKS CORNER FAIR 75 75 100 CALM 30.00S FOG SUMMERVILLE FAIR 77 75 94 CALM 30.01R BEAUFORT MCAS CLOUDY 81 80 97 CALM 29.99S HX 91 BEAUFORT ARPT FAIR 81 79 94 SW3 29.98F HILTON HEAD IS DRIZZLE 79 75 89 SW5 30.00S WALTERBORO MOSUNNY 77 75 94 CALM 30.01S ALLENDALE NOT AVBL ...SOUTHERN MIDLANDS AND PEE DEE... CITY SKY/WX TMP DP RH WIND PRES REMARKS GEORGETOWN FAIR 77 77 100 SW3 30.01S KINGSTREE FAIR 75 73 94 CALM 30.00R ORANGEBURG PTCLDY 73 71 93 CALM 30.00S BARNWELL FAIR 73 72 94 CALM 30.01R AIKEN FAIR 72 68 88 CALM 30.04S MANNING FAIR 77 77 100 W8 30.00S COLUMBIA CLEAR 79 71 76 N3 29.98S SUMTER CLEAR 75 69 79 CALM 29.97S FLORENCE PTCLDY 77 77 100 CALM 30.00R MYRTLE BEACH NOT AVBL N MYRTLE BEACH PTCLDY 81 80 97 SW8 29.99S HX 91 $$ GAZ063-065-086>088-099>101-113>116-118-119-134>141-150-200900- ...SOUTHEAST GEORGIA... CITY SKY/WX TMP DP RH WIND PRES REMARKS SAVANNAH ARPT CLEAR 79 76 90 S3 29.99S HUNTER AAF CLEAR 78 76 94 CALM 29.96F FORT STEWART PTCLDY 76 73 91 CALM 29.97S STATESBORO MOCLDY 76 74 95 CALM 29.99S SYLVANIA PTSUNNY 74 74 100 CALM 30.01S CLAXTON FAIR 75 74 98 CALM 29.99S ...CSRA...CENTRAL AND FAR SOUTHEAST GEORGIA... CITY SKY/WX TMP DP RH WIND PRES REMARKS THOMSON CLEAR 71 69 95 CALM 30.05S AUGUSTA-BUSH CLEAR 74 71 91 CALM 29.99S AUGUSTA-DANIEL CLEAR 78 67 68 SE3 30.01R SWAINSBORO FAIR 70 70 100 CALM 30.01S VIDALIA CLOUDY 77 72 83 CALM 30.00R EASTMAN FAIR 72 72 100 CALM 30.02S HAZLEHURST FAIR 76 70 83 CALM 29.98F ALMA CLEAR 75 73 93 CALM 29.98F WAYCROSS MOCLDY 77 74 90 CALM 29.98F JESUP FAIR 79 73 83 CALM 29.98F BAXLEY FAIR 73 73 100 CALM 29.98S BRUNSWICK MOCLDY 77 72 83 CALM 29.99F SAINT SIMONS CLEAR 80 75 84 SW5 29.98F $$ SCZ027-028-034-036>038-045-046-048>050-GAZ119-141-200900- ...LAKE AND SUPPLEMENTAL COASTAL OBSERVATIONS... STATION/POSITION TIME TEMP WIND PRES WAVE SWELL AIR SEA DIR/SP/G HT/PER HT/PER/DIR (UTC) (F) (DEG/KT/KT) (MB) (FT/S) (FT/S/D) WINYAH BAY 0645 81 260/ 2 1016.0 LAKE MURRAY 0720 78 CALM / 1 1014.9 ACE BASIN NERRS 0645 80 CALM 1016.0 FORT PULASKI 0742 82 87 210/ 1/ 2 1015.8F SAPELO ISLAND 0700 81 CALM 1015.0 $$ ANZ835-935-AMZ111-154-330-350-352-354-370-450-454-472-200900- ...C-MAN AND BUOY OBSERVATIONS... STATION/POSITION TIME TEMP WIND PRES WAVE SWELL AIR SEA DIR/SP/G HT/PER HT/PER/DIR (UTC) (F) (DEG/KT/KT) (MB) (FT/S) (FT/S/D) BUOY 41004 0750 84 84 220/ 10/ 12 1015.5F 3/ 9 2/140/ 9 BUOY 41008 0750 84 85 170/ 14/ 16 1014.9F 3/10 2/ 60/10 FOLLY BEACH CMAN 0700 84 220/ 11/ 12 1016.3S CAPERS NEARSHORE 0708 82 85 220/ 10/ 16 1015.6S FRIPP NEARSHORE 0708 85 210/ 12/ 16 1015.2F STATION/POSITION TIME TEMP WIND PRES WAVE SWELL AIR SEA DIR/SP/G HT/PER HT/PER/DIR (UTC) (F) (DEG/KT/KT) (MB) (FT/S) (FT/S/D) 5E ST. MARYS GA 0730 84 N/A 3/ 8 FRYING PAN BUOY 0750 83 84 230/ 12/ 16 1015.7R 4/ 8 2/130/ 8 BUOY 41025 0750 82 83 260/ 8/ 10 1015.8R 3/ 8 3/140/ 8 CAPE LOOKOUT NC 0700 81 240/ 3/ 3 1015.5R BUOY 41002 0750 83 84 190/ 12/ 14 1017.2S 3/ 5 3/210/ 5 BUOY 41010 0750 83 85 160/ 12/ 14 1015.4F 3/ 8 2/120/ 8 ST AUGUSTINE FL 0800 80 82 180/ 7/ 8 1015.7F $$

USA.gov is the U.S. government's official web portal to all federal, state and local government web resources and services.